This is the latest recevied weather packets stored in our database for station/object KM6YFK-13. If no packets are shown the sender has not sent any weather packets the latest 10 day(s).
| Time | Temp. | Humidity | Pressure | Rain* | Wind** | Luminosity | Snow |
|---|---|---|---|---|---|---|---|
| 1777742307 | 28.33° C | 62% | 1010.1 hPa | 0 mm | - | 376 W/m² | - |
| 1777742008 | 27.78° C | 62% | 1010.1 hPa | 0 mm | - | 394 W/m² | - |
| 1777741708 | 27.78° C | 63% | 1010.1 hPa | 0 mm | - | 355 W/m² | - |
| 1777741408 | 27.78° C | 62% | 1010.2 hPa | 0 mm | - | 281 W/m² | - |
| 1777741108 | 27.78° C | 62% | 1010.2 hPa | 0 mm | - | 262 W/m² | - |
| 1777740807 | 27.78° C | 64% | 1010.1 hPa | 0 mm | - | 284 W/m² | - |
| 1777740507 | 27.78° C | 62% | 1010.1 hPa | 0 mm | - | 295 W/m² | - |
| 1777740207 | 27.78° C | 64% | 1010.2 hPa | 0 mm | - | 373 W/m² | - |
| 1777739907 | 27.78° C | 62% | 1010.2 hPa | 0 mm | - | 367 W/m² | - |
| 1777739608 | 27.78° C | 61% | 1010.2 hPa | 0 mm | - | 410 W/m² | - |
| 1777739307 | 27.78° C | 61% | 1010.1 hPa | 0 mm | - | 634 W/m² | - |
| 1777739008 | 27.78° C | 63% | 1010.1 hPa | 0 mm | - | 520 W/m² | - |
| 1777738707 | 27.78° C | 61% | 1010.3 hPa | 0 mm | - | 435 W/m² | - |
| 1777738408 | 27.22° C | 62% | 1010.3 hPa | 0 mm | - | 482 W/m² | - |
| 1777738108 | 27.22° C | 63% | 1010.3 hPa | 0 mm | - | 329 W/m² | - |
| 1777737808 | 27.22° C | 61% | 1010.2 hPa | 0 mm | - | 307 W/m² | - |
| 1777737508 | 27.22° C | 62% | 1010.3 hPa | 0 mm | - | 334 W/m² | - |
| 1777737207 | 27.22° C | 62% | 1010.2 hPa | 0 mm | - | 336 W/m² | - |
| 1777736908 | 27.22° C | 62% | 1010.3 hPa | 0 mm | - | 318 W/m² | - |
| 1777736608 | 27.22° C | 64% | 1010.3 hPa | 0 mm | - | 345 W/m² | - |
| 1777736308 | 27.22° C | 67% | 1010.3 hPa | 0 mm | - | 369 W/m² | - |
| 1777736008 | 26.67° C | 66% | 1010.4 hPa | 0 mm | - | 379 W/m² | - |
| 1777735707 | 26.67° C | 68% | 1010.4 hPa | 0 mm | - | 406 W/m² | - |
| 1777735407 | 26.67° C | 67% | 1010.5 hPa | 0 mm | - | 366 W/m² | - |
| 1777735107 | 26.11° C | 69% | 1010.5 hPa | 0 mm | - | 347 W/m² | - |
* Rain latest hour (hover to see other rain measurements)
** Current wind speed in m/s (hover to see current wind gust speed)